TimeCDT,TemperatureF,Dew PointF,Humidity,Sea Level PressureIn,VisibilityMPH,Wind Direction,Wind SpeedMPH,Gust SpeedMPH,PrecipitationIn,Events,Conditions,WindDirDegrees,DateUTC
12:15 AM,59.0,44.6,59,29.85,10.0,SE,19.6,26.5,N/A,,Overcast,140,2013-10-15 05:15:00
12:35 AM,60.8,46.4,59,29.84,10.0,SSE,24.2,34.5,N/A,,Overcast,150,2013-10-15 05:35:00
12:55 AM,60.8,48.2,63,29.84,10.0,SSE,23.0,31.1,N/A,,Overcast,160,2013-10-15 05:55:00
1:15 AM,57.2,50.0,77,29.84,3.0,SSE,19.6,27.6,N/A,,Haze,160,2013-10-15 06:15:00
1:35 AM,57.2,51.8,82,29.87,8.0,South,15.0,-,N/A,,Mostly Cloudy,190,2013-10-15 06:35:00
1:55 AM,55.4,53.6,94,29.86,2.0,SSE,12.7,19.6,0.09,,Overcast,160,2013-10-15 06:55:00
2:15 AM,55.4,53.6,94,29.85,3.0,SSE,13.8,20.7,N/A,,Overcast,160,2013-10-15 07:15:00
2:35 AM,55.4,53.6,94,29.82,7.0,SSE,17.3,26.5,N/A,,Overcast,150,2013-10-15 07:35:00
2:55 AM,55.4,53.6,94,29.80,9.0,SSE,18.4,26.5,0.01,,Overcast,150,2013-10-15 07:55:00
3:15 AM,55.4,53.6,94,29.79,10.0,SSE,19.6,28.8,N/A,,Overcast,150,2013-10-15 08:15:00
3:35 AM,57.2,53.6,88,29.80,10.0,South,13.8,25.3,N/A,,Overcast,170,2013-10-15 08:35:00
3:55 AM,57.2,55.4,94,29.79,8.0,South,16.1,21.9,N/A,,Overcast,170,2013-10-15 08:55:00
4:15 AM,57.2,55.4,94,29.80,6.0,South,13.8,-,N/A,Rain,Light Rain,180,2013-10-15 09:15:00
4:35 AM,57.2,55.4,94,29.78,8.0,SSE,15.0,-,N/A,,Overcast,160,2013-10-15 09:35:00
4:55 AM,57.2,55.4,94,29.79,7.0,South,10.4,16.1,N/A,,Overcast,170,2013-10-15 09:55:00
5:15 AM,57.2,57.2,100,29.79,7.0,South,10.4,-,N/A,,Overcast,180,2013-10-15 10:15:00
5:35 AM,59.0,57.2,94,29.79,9.0,South,10.4,-,N/A,,Overcast,190,2013-10-15 10:35:00
5:55 AM,59.0,57.2,94,29.79,10.0,South,10.4,-,N/A,,Overcast,190,2013-10-15 10:55:00
6:15 AM,59.0,55.4,88,29.81,10.0,WSW,18.4,24.2,N/A,,Overcast,250,2013-10-15 11:15:00
6:35 AM,55.4,51.8,88,29.82,9.0,WSW,15.0,21.9,N/A,,Overcast,250,2013-10-15 11:35:00
6:55 AM,53.6,50.0,88,29.82,10.0,WSW,15.0,20.7,N/A,,Overcast,250,2013-10-15 11:55:00
7:15 AM,53.6,50.0,88,29.82,10.0,WSW,12.7,-,N/A,,Overcast,240,2013-10-15 12:15:00
7:35 AM,53.6,48.2,82,29.82,10.0,WSW,10.4,17.3,N/A,,Overcast,250,2013-10-15 12:35:00
7:55 AM,51.8,46.4,82,29.83,10.0,WSW,19.6,-,N/A,,Overcast,240,2013-10-15 12:55:00
8:15 AM,51.8,46.4,82,29.83,10.0,SW,15.0,-,N/A,,Overcast,230,2013-10-15 13:15:00
8:35 AM,51.8,46.4,82,29.84,10.0,SW,16.1,21.9,N/A,,Overcast,230,2013-10-15 13:35:00
8:55 AM,51.8,44.6,76,29.84,10.0,WSW,18.4,-,N/A,,Overcast,240,2013-10-15 13:55:00
9:15 AM,51.8,44.6,76,29.85,10.0,WSW,15.0,-,N/A,,Overcast,240,2013-10-15 14:15:00
9:35 AM,50.0,44.6,82,29.85,10.0,WSW,15.0,21.9,N/A,,Overcast,250,2013-10-15 14:35:00
9:55 AM,50.0,42.8,76,29.85,10.0,WSW,15.0,21.9,N/A,,Overcast,250,2013-10-15 14:55:00
10:15 AM,50.0,42.8,76,29.85,10.0,WSW,15.0,24.2,N/A,,Overcast,250,2013-10-15 15:15:00
10:35 AM,50.0,42.8,76,29.86,10.0,West,17.3,24.2,N/A,,Overcast,260,2013-10-15 15:35:00
10:55 AM,51.8,41.0,67,29.86,10.0,West,13.8,24.2,N/A,,Overcast,260,2013-10-15 15:55:00
11:15 AM,51.8,41.0,67,29.86,10.0,WSW,17.3,-,N/A,,Overcast,250,2013-10-15 16:15:00
11:35 AM,51.8,41.0,67,29.86,10.0,West,17.3,24.2,N/A,,Overcast,260,2013-10-15 16:35:00
11:55 AM,51.8,41.0,67,29.86,10.0,West,18.4,25.3,N/A,,Mostly Cloudy,260,2013-10-15 16:55:00
12:15 PM,51.8,41.0,67,29.87,10.0,West,19.6,26.5,N/A,,Overcast,260,2013-10-15 17:15:00
12:35 PM,53.6,41.0,62,29.87,10.0,West,17.3,28.8,N/A,,Overcast,260,2013-10-15 17:35:00
12:55 PM,53.6,41.0,62,29.86,10.0,West,16.1,27.6,N/A,,Overcast,260,2013-10-15 17:55:00
1:15 PM,51.8,41.0,67,29.85,10.0,WSW,16.1,25.3,N/A,,Overcast,240,2013-10-15 18:15:00
1:35 PM,51.8,41.0,67,29.85,10.0,WSW,17.3,-,N/A,,Overcast,250,2013-10-15 18:35:00
1:55 PM,51.8,39.2,62,29.85,10.0,West,17.3,25.3,N/A,,Overcast,260,2013-10-15 18:55:00
2:15 PM,53.6,41.0,62,29.85,10.0,WSW,21.9,31.1,N/A,,Overcast,250,2013-10-15 19:15:00
2:35 PM,51.8,41.0,67,29.85,10.0,West,20.7,27.6,N/A,,Overcast,260,2013-10-15 19:35:00
2:55 PM,51.8,41.0,67,29.85,10.0,West,18.4,25.3,N/A,,Overcast,260,2013-10-15 19:55:00
3:15 PM,51.8,39.2,62,29.86,10.0,WSW,17.3,24.2,N/A,,Overcast,250,2013-10-15 20:15:00
3:35 PM,51.8,39.2,62,29.86,10.0,West,17.3,24.2,N/A,,Overcast,260,2013-10-15 20:35:00
3:55 PM,51.8,39.2,62,29.87,10.0,West,15.0,27.6,N/A,,Overcast,260,2013-10-15 20:55:00
4:15 PM,51.8,39.2,62,29.87,10.0,WSW,17.3,-,N/A,,Overcast,250,2013-10-15 21:15:00
4:35 PM,50.0,39.2,66,29.87,10.0,WSW,18.4,25.3,N/A,,Overcast,250,2013-10-15 21:35:00
4:55 PM,50.0,39.2,66,29.87,10.0,WSW,16.1,-,N/A,,Overcast,250,2013-10-15 21:55:00
5:15 PM,50.0,41.0,71,29.87,10.0,WSW,15.0,21.9,N/A,,Overcast,250,2013-10-15 22:15:00
5:35 PM,50.0,41.0,71,29.88,10.0,West,18.4,25.3,N/A,,Overcast,270,2013-10-15 22:35:00
5:55 PM,50.0,41.0,71,29.88,10.0,WSW,17.3,-,N/A,,Overcast,250,2013-10-15 22:55:00
6:15 PM,50.0,41.0,71,29.88,10.0,WSW,19.6,25.3,N/A,,Overcast,250,2013-10-15 23:15:00
6:35 PM,50.0,41.0,71,29.88,10.0,WSW,17.3,24.2,N/A,,Overcast,250,2013-10-15 23:35:00
6:55 PM,50.0,41.0,71,29.88,10.0,WSW,18.4,-,N/A,,Overcast,240,2013-10-15 23:55:00
7:15 PM,50.0,41.0,71,29.89,10.0,WSW,13.8,21.9,N/A,,Overcast,240,2013-10-16 00:15:00
7:55 PM,50.0,42.8,76,29.90,10.0,West,12.7,23.0,N/A,,Overcast,260,2013-10-16 00:55:00
8:15 PM,48.2,42.8,82,29.91,10.0,West,16.1,23.0,N/A,,Overcast,270,2013-10-16 01:15:00
8:35 PM,48.2,42.8,82,29.92,10.0,West,13.8,-,N/A,,Overcast,260,2013-10-16 01:35:00
8:55 PM,48.2,42.8,82,29.91,10.0,WSW,17.3,-,N/A,,Overcast,250,2013-10-16 01:55:00
9:15 PM,48.2,42.8,82,29.91,10.0,West,16.1,-,N/A,,Overcast,260,2013-10-16 02:15:00
9:35 PM,48.2,42.8,82,29.91,10.0,West,18.4,24.2,N/A,,Overcast,260,2013-10-16 02:35:00
9:55 PM,48.2,42.8,82,29.92,10.0,West,15.0,23.0,N/A,,Overcast,260,2013-10-16 02:55:00
10:15 PM,48.2,42.8,82,29.92,10.0,West,17.3,24.2,N/A,,Overcast,260,2013-10-16 03:15:00
10:35 PM,48.2,42.8,82,29.92,10.0,West,16.1,23.0,N/A,,Overcast,260,2013-10-16 03:35:00
10:55 PM,48.2,42.8,82,29.92,10.0,West,15.0,-,N/A,,Overcast,260,2013-10-16 03:55:00
11:15 PM,48.2,42.8,82,29.92,10.0,West,15.0,23.0,N/A,,Overcast,260,2013-10-16 04:15:00
11:35 PM,48.2,42.8,82,29.92,10.0,West,16.1,24.2,N/A,,Overcast,260,2013-10-16 04:35:00
11:55 PM,48.2,42.8,82,29.92,10.0,West,17.3,-,N/A,,Overcast,270,2013-10-16 04:55:00